EAF101P LBWN-LBSF

Flight info

Callsign EAF101P
Flight time N/A
Altitude 34000
Route DICXA2N/09 DICXA DCT UMPIT
Aircraft A320/M-SDE3FGHIRWY/LB1

Departure

Time 2026-04-30 15:05
Airport Varna Airport (LBWN)

Arrival

Time N/A
Airport Sofia Airport (LBSF)
Time Latitude Longitude Altitude Speed Heading
2026-04-30 14:44 43.23513 27.82558 222 ft 0 kts
2026-04-30 15:00 43.23558 27.82553 224 ft 7 kts 324°
2026-04-30 15:00 43.23587 27.82356 223 ft 14 kts 276°
2026-04-30 15:01 43.23500 27.82240 222 ft 2 kts 205°
2026-04-30 15:01 43.23487 27.82224 223 ft 5 kts 229°
2026-04-30 15:01 43.23490 27.82042 222 ft 7 kts 277°
2026-04-30 15:02 43.23499 27.81954 223 ft 11 kts 277°
2026-04-30 15:02 43.23510 27.81830 222 ft 15 kts 276°
2026-04-30 15:03 43.23553 27.81339 222 ft 14 kts 277°
2026-04-30 15:03 43.23570 27.80996 224 ft 21 kts 253°
2026-04-30 15:04 43.23419 27.80961 222 ft 10 kts 151°
2026-04-30 15:04 43.23276 27.81621 223 ft 88 kts 97°
2026-04-30 15:05 43.22893 27.85541 1177 ft 153 kts 93°
2026-04-30 15:06 43.22488 27.88635 2129 ft 191 kts 118°
2026-04-30 15:06 43.19605 27.89535 2940 ft 263 kts 197°
2026-04-30 15:07 43.16271 27.87217 4828 ft 275 kts 208°
2026-04-30 15:07 43.12995 27.84560 6841 ft 274 kts 210°
2026-04-30 15:08 43.09617 27.81962 8732 ft 279 kts 211°
2026-04-30 15:08 43.06993 27.75437 11283 ft 282 kts 273°
2026-04-30 15:09 43.07468 27.69695 11732 ft 329 kts 276°
2026-04-30 15:09 43.08092 27.63094 12133 ft 366 kts 277°
2026-04-30 15:10 43.10289 27.56770 13350 ft 385 kts 312°
2026-04-30 15:11 43.15817 27.44894 15870 ft 378 kts 269°
2026-04-30 15:11 43.15190 27.37771 17022 ft 381 kts 260°
2026-04-30 15:12 43.14142 27.26835 17863 ft 400 kts 264°
2026-04-30 15:13 43.15276 27.18993 15617 ft 407 kts 277°
2026-04-30 15:14 43.14604 27.04898 13414 ft 365 kts 261°
2026-04-30 15:14 43.13419 26.94486 14499 ft 371 kts 260°
2026-04-30 15:16 43.11367 26.76852 17501 ft 382 kts 259°
2026-04-30 15:17 43.09656 26.62353 19727 ft 391 kts 259°
2026-04-30 15:18 43.07458 26.43836 22127 ft 400 kts 259°
2026-04-30 15:19 43.06087 26.32444 23362 ft 407 kts 259°